User: anonymous
Location: Albany
(35.0000°S, 118.0000°E)
Time: 22:32:08
(UTC-04:00)
Language:

JAS-1B - Orbit

View from above orbital plane
View from above orbital plane
View from above satellite
View from above satellite

Ground track
Ground track

The orbit data is extracted from the following two-line orbital elements,

1 20480U 90013C   14203.82527672 -.00000043  00000-0 -14786-4 0  7904
2 20480 099.0465 160.2629 0539351 273.0694 136.7787 12.83394515145709
Epoch (UTC): 22 July 2014 19:48:23
Eccentricity: 0.0539351
inclination: 99.0465°
perigee height: 912 km
apogee height: 1743 km
right ascension of ascending node: 160.2629°
argument of perigee: 273.0694°
revolutions per day: 12.83394515
mean anomaly at epoch: 136.7787°
orbit number at epoch: 14570

The dashed part of the orbit path shows where the satellite is in the earth's shadow,  

DLR